Preview of NWS' New Version of Forecast
This preview is not operational and should not be used for support decisions.

Regional Weather Roundup (RWR)

Issued by National Weather Service (NWS)

                            
000
ASUS43 KBIS 190510
RWRND 

NORTH DAKOTA REGIONAL WEATHER ROUNDUP
NATIONAL WEATHER SERVICE BISMARCK ND
1200 AM CDT FRI APR 19 2019

NOTE: "FAIR" INDICATES FEW OR NO CLOUDS BELOW 12,000 FEET WITH NO
SIGNIFICANT WEATHER AND/OR OBSTRUCTIONS TO VISIBILITY.


NDZ001>003-009>011-017-190600-
NORTHWEST NORTH DAKOTA
  
CITY           SKY/WX    TMP DP  RH WIND       PRES   REMARKS
WILLISTON      PTCLDY    40  29  64 CALM      30.00F                  
MINOT          CLEAR     41  33  73 SW7       30.01F                  
$$
 
NDZ018>021-031>035-040>046-190600-
SOUTHWEST NORTH DAKOTA
  
CITY           SKY/WX    TMP DP  RH WIND       PRES   REMARKS
BISMARCK       CLEAR     38  34  85 CALM      30.07F                  
DICKINSON      CLEAR     36  26  67 S7        30.03F                  
GARRISON         N/A     37  31  78 S3        30.03F                  
HETTINGER ARPT CLEAR     33  25  72 CALM      30.09S                  
$$
 
NDZ004>008-012>016-024-026-027-054-190600-
NORTHEAST NORTH DAKOTA
  
CITY           SKY/WX    TMP DP  RH WIND       PRES   REMARKS
GRAND FORKS    CLEAR     41  35  79 SW5       30.02F                  
DEVILS LAKE    CLEAR     35  32  88 SW3       30.04F                  
$$
 
NDZ022-023-025-028>030-036>039-047>053-190600-
SOUTHEAST NORTH DAKOTA
  
CITY           SKY/WX    TMP DP  RH WIND       PRES   REMARKS
FARGO          CLEAR     39  35  86 W6        30.03F                  
JAMESTOWN      CLEAR     40  37  89 W5        30.05F                  
$$